UAL2237 KSAN-KIAH

Flight info

Callsign UAL2237
Flight time 2h 27m
Altitude 37000
Route ZZOOO4 GBN J50 SSO EWM SJT DIESL TTORO3
Aircraft B38M/M-SDE1FGHILORVWXY/HB1

Departure

Time 2026-04-24 21:40
Airport San Diego International Airport (KSAN)

Arrival

Time 2026-04-25 00:07
Airport George Bush Intercontinental Airport (KIAH)
Time Latitude Longitude Altitude Speed Heading
2026-04-24 21:13 32.73429 -117.20467 23 ft 0 kts 109°
2026-04-24 21:30 32.73434 -117.20486 27 ft 3 kts 109°
2026-04-24 21:30 32.73440 -117.20506 26 ft 3 kts 109°
2026-04-24 21:30 32.73447 -117.20528 24 ft 3 kts 109°
2026-04-24 21:30 32.73453 -117.20549 24 ft 3 kts 109°
2026-04-24 21:31 32.73458 -117.20564 24 ft 0 kts 109°
2026-04-24 21:34 32.73458 -117.20562 22 ft 1 kts 94°
2026-04-24 21:34 32.73475 -117.20542 21 ft 6 kts 30°
2026-04-24 21:34 32.73516 -117.20502 20 ft 10 kts 45°
2026-04-24 21:34 32.73564 -117.20437 19 ft 11 kts 49°
2026-04-24 21:35 32.73589 -117.20354 21 ft 10 kts 95°
2026-04-24 21:35 32.73571 -117.20272 27 ft 12 kts 106°
2026-04-24 21:35 32.73534 -117.20118 28 ft 27 kts 106°
2026-04-24 21:35 32.73470 -117.19859 26 ft 35 kts 106°
2026-04-24 21:36 32.73402 -117.19573 30 ft 37 kts 106°
2026-04-24 21:36 32.73328 -117.19274 26 ft 39 kts 106°
2026-04-24 21:36 32.73258 -117.18987 28 ft 32 kts 105°
2026-04-24 21:36 32.73195 -117.18728 27 ft 33 kts 107°
2026-04-24 21:37 32.73131 -117.18462 24 ft 35 kts 106°
2026-04-24 21:37 32.73064 -117.18184 23 ft 36 kts 107°
2026-04-24 21:37 32.72995 -117.17903 21 ft 29 kts 105°
2026-04-24 21:37 32.72956 -117.17740 20 ft 11 kts 106°
2026-04-24 21:38 32.72950 -117.17700 19 ft 0 kts 91°
2026-04-24 21:39 32.72955 -117.17659 20 ft 11 kts 77°
2026-04-24 21:39 32.73012 -117.17593 22 ft 10 kts 326°
2026-04-24 21:39 32.73046 -117.17681 21 ft 18 kts 285°
2026-04-24 21:39 32.73149 -117.18109 24 ft 92 kts 286°
2026-04-24 21:40 32.73391 -117.19114 33 ft 157 kts 287°
2026-04-24 21:40 32.73738 -117.20388 779 ft 165 kts 287°
2026-04-24 21:40 32.74084 -117.21709 1741 ft 172 kts 284°
2026-04-24 21:40 32.74444 -117.23131 2337 ft 191 kts 284°
2026-04-24 21:41 32.74821 -117.24737 2913 ft 211 kts 285°
2026-04-24 21:41 32.75239 -117.26514 3585 ft 229 kts 286°
2026-04-24 21:41 32.75677 -117.28362 4294 ft 241 kts 286°
2026-04-24 21:41 32.76117 -117.30280 5233 ft 239 kts 285°
2026-04-24 21:42 32.76538 -117.32231 6085 ft 241 kts 279°
2026-04-24 21:42 32.76459 -117.34186 7074 ft 237 kts 253°
2026-04-24 21:42 32.75558 -117.35833 7862 ft 243 kts 221°
2026-04-24 21:42 32.74049 -117.36724 8719 ft 250 kts 198°
2026-04-24 21:43 32.72293 -117.36820 9370 ft 264 kts 169°
2026-04-24 21:43 32.70665 -117.35784 10228 ft 270 kts 142°
2026-04-24 21:43 32.69451 -117.33991 10756 ft 289 kts 126°
2026-04-24 21:43 32.68392 -117.32032 11639 ft 277 kts 131°
2026-04-24 21:44 32.67162 -117.30160 12031 ft 294 kts 133°
2026-04-24 21:44 32.65829 -117.28312 12701 ft 295 kts 135°
2026-04-24 21:44 32.64475 -117.26421 13357 ft 303 kts 134°
2026-04-24 21:44 32.63327 -117.24260 13832 ft 324 kts 113°
2026-04-24 21:45 32.62879 -117.21554 14184 ft 344 kts 96°
2026-04-24 21:45 32.62626 -117.18656 14498 ft 361 kts 98°
2026-04-24 21:45 32.62340 -117.15623 14849 ft 377 kts 98°
2026-04-24 21:45 32.62080 -117.12503 15260 ft 390 kts 92°
2026-04-24 21:46 32.62450 -117.09310 15981 ft 391 kts 72°
2026-04-24 21:46 32.63349 -117.06238 16562 ft 398 kts 69°
2026-04-24 21:46 32.64312 -117.03125 17119 ft 403 kts 68°
2026-04-24 21:46 32.65305 -116.99994 17757 ft 408 kts 68°
2026-04-24 21:47 32.66273 -116.96801 18281 ft 415 kts 75°
2026-04-24 21:47 32.66578 -116.94558 18674 ft 415 kts 87°
2026-04-24 21:47 32.66742 -116.89983 19325 ft 422 kts 89°
2026-04-24 21:47 32.66844 -116.86494 19879 ft 424 kts 89°
2026-04-24 21:48 32.66934 -116.82970 20374 ft 428 kts 89°
2026-04-24 21:48 32.67019 -116.79418 20886 ft 432 kts 89°
2026-04-24 21:48 32.67088 -116.75816 21389 ft 435 kts 92°
2026-04-24 21:48 32.67027 -116.72241 21871 ft 438 kts 92°
2026-04-24 21:49 32.66967 -116.68603 22340 ft 442 kts 92°
2026-04-24 21:49 32.66914 -116.64928 22845 ft 445 kts 92°
2026-04-24 21:49 32.66862 -116.61282 23333 ft 448 kts 92°
2026-04-24 21:49 32.66809 -116.57553 23715 ft 452 kts 92°
2026-04-24 21:50 32.66753 -116.53796 24119 ft 454 kts 92°
2026-04-24 21:50 32.66698 -116.50027 24504 ft 458 kts 92°
2026-04-24 21:50 32.66641 -116.46259 24856 ft 462 kts 92°
2026-04-24 21:50 32.66633 -116.42434 25256 ft 465 kts 87°
2026-04-24 21:51 32.66957 -116.38575 25610 ft 469 kts 84°
2026-04-24 21:51 32.67296 -116.34714 25952 ft 472 kts 84°
2026-04-24 21:51 32.67646 -116.30823 26334 ft 475 kts 84°
2026-04-24 21:51 32.68000 -116.26908 26657 ft 478 kts 84°
2026-04-24 21:52 32.68350 -116.23022 26999 ft 481 kts 84°
2026-04-24 21:52 32.68707 -116.19049 27398 ft 483 kts 84°
2026-04-24 21:52 32.69064 -116.15064 27738 ft 486 kts 85°
2026-04-24 21:52 32.69421 -116.11060 28066 ft 489 kts 85°
2026-04-24 21:53 32.69779 -116.07031 28373 ft 492 kts 85°
2026-04-24 21:53 32.70144 -116.03001 28660 ft 495 kts 84°
2026-04-24 21:53 32.70526 -115.98913 29004 ft 497 kts 84°
2026-04-24 21:53 32.70905 -115.94817 29296 ft 500 kts 84°
2026-04-24 21:54 32.71281 -115.90739 29604 ft 502 kts 84°
2026-04-24 21:54 32.71661 -115.86605 29878 ft 505 kts 85°
2026-04-24 21:54 32.72043 -115.82434 30158 ft 507 kts 85°
2026-04-24 21:54 32.72424 -115.78252 30423 ft 509 kts 84°
2026-04-24 21:55 32.72800 -115.74112 30679 ft 511 kts 84°
2026-04-24 21:55 32.73181 -115.69897 30927 ft 514 kts 84°
2026-04-24 21:55 32.73564 -115.65657 31173 ft 516 kts 84°
2026-04-24 21:55 32.73946 -115.61405 31423 ft 518 kts 84°
2026-04-24 21:56 32.74324 -115.57179 31650 ft 521 kts 84°
2026-04-24 21:56 32.74708 -115.52867 31892 ft 523 kts 85°
2026-04-24 21:56 32.74877 -115.48535 32120 ft 524 kts 90°
2026-04-24 21:56 32.74940 -115.44195 32348 ft 527 kts 90°
2026-04-24 21:57 32.75029 -115.39866 32568 ft 529 kts 89°
2026-04-24 21:57 32.75134 -115.35487 32826 ft 532 kts 89°
2026-04-24 21:57 32.75244 -115.31077 33051 ft 534 kts 89°
2026-04-24 21:57 32.75354 -115.26650 33287 ft 536 kts 89°
2026-04-24 21:58 32.75463 -115.22212 33569 ft 537 kts 89°
2026-04-24 21:58 32.75570 -115.17773 33891 ft 536 kts 89°
2026-04-24 21:58 32.75674 -115.13394 34151 ft 536 kts 89°
2026-04-24 21:58 32.75778 -115.08947 34391 ft 537 kts 89°
2026-04-24 21:59 32.75880 -115.04512 34628 ft 537 kts 89°
2026-04-24 21:59 32.75981 -115.00073 34872 ft 537 kts 89°
2026-04-24 21:59 32.76081 -114.95629 35093 ft 537 kts 89°
2026-04-24 21:59 32.76178 -114.91234 35305 ft 538 kts 89°
2026-04-24 22:00 32.76274 -114.86774 35516 ft 538 kts 89°
2026-04-24 22:00 32.76369 -114.82318 35751 ft 538 kts 89°
2026-04-24 22:00 32.76463 -114.77867 35978 ft 538 kts 89°
2026-04-24 22:00 32.76554 -114.73418 36178 ft 539 kts 89°
2026-04-24 22:01 32.76644 -114.69017 36362 ft 539 kts 89°
2026-04-24 22:01 32.76734 -114.64542 36538 ft 540 kts 89°
2026-04-24 22:01 32.76814 -114.60065 36740 ft 540 kts 90°
2026-04-24 22:01 32.76875 -114.55595 36851 ft 540 kts 90°
2026-04-24 22:02 32.76937 -114.51175 36828 ft 539 kts 90°
2026-04-24 22:02 32.77061 -114.42257 36833 ft 539 kts 90°
2026-04-24 22:03 32.77177 -114.33345 36835 ft 538 kts 90°
2026-04-24 22:03 32.77287 -114.24502 36832 ft 538 kts 90°
2026-04-24 22:04 32.77392 -114.15591 36816 ft 538 kts 90°
2026-04-24 22:04 32.77489 -114.06724 36819 ft 538 kts 90°
2026-04-24 22:05 32.77612 -113.97808 36800 ft 538 kts 84°
2026-04-24 22:05 32.78791 -113.89101 36795 ft 537 kts 80°
2026-04-24 22:06 32.80018 -113.80308 36801 ft 537 kts 79°
2026-04-24 22:06 32.81263 -113.71570 36801 ft 537 kts 79°
2026-04-24 22:07 32.82504 -113.62825 36794 ft 537 kts 79°
2026-04-24 22:07 32.83744 -113.54037 36800 ft 537 kts 79°
2026-04-24 22:08 32.84766 -113.46765 36801 ft 537 kts 80°
2026-04-24 22:08 32.86195 -113.36546 36801 ft 537 kts 80°
2026-04-24 22:09 32.87214 -113.29219 36798 ft 537 kts 80°
2026-04-24 22:09 32.88425 -113.20468 36797 ft 537 kts 80°
2026-04-24 22:10 32.89630 -113.11715 36798 ft 537 kts 80°
2026-04-24 22:10 32.90829 -113.02952 36807 ft 537 kts 80°
2026-04-24 22:11 32.92023 -112.94188 36810 ft 537 kts 80°
2026-04-24 22:11 32.93210 -112.85427 36823 ft 537 kts 80°
2026-04-24 22:12 32.94390 -112.76664 36825 ft 537 kts 80°
2026-04-24 22:12 32.95482 -112.67866 36815 ft 536 kts 88°
2026-04-24 22:12 32.95301 -112.63450 36840 ft 532 kts 99°
2026-04-24 22:13 32.94887 -112.59091 36807 ft 534 kts 98°
2026-04-24 22:13 32.94092 -112.50282 36811 ft 535 kts 98°
2026-04-24 22:14 32.93292 -112.41460 36810 ft 535 kts 98°
2026-04-24 22:14 32.92494 -112.32712 36811 ft 535 kts 99°
2026-04-24 22:15 32.91684 -112.23914 36807 ft 535 kts 98°
2026-04-24 22:15 32.90867 -112.15107 36812 ft 535 kts 98°
2026-04-24 22:16 32.90041 -112.06269 36824 ft 535 kts 98°
2026-04-24 22:16 32.89213 -111.97483 36835 ft 535 kts 98°
2026-04-24 22:17 32.88152 -111.88751 36841 ft 530 kts 109°
2026-04-24 22:17 32.86241 -111.80279 36843 ft 531 kts 109°
2026-04-24 22:18 32.84351 -111.71790 36845 ft 532 kts 109°
2026-04-24 22:18 32.82456 -111.63298 36834 ft 532 kts 109°
2026-04-24 22:19 32.80554 -111.54798 36820 ft 532 kts 109°
2026-04-24 22:19 32.78633 -111.46247 36802 ft 533 kts 109°
2026-04-24 22:20 32.76724 -111.37776 36819 ft 533 kts 109°
2026-04-24 22:20 32.74802 -111.29278 36832 ft 534 kts 109°
2026-04-24 22:21 32.72871 -111.20773 36825 ft 534 kts 109°
2026-04-24 22:21 32.70933 -111.12262 36819 ft 534 kts 109°
2026-04-24 22:22 32.68993 -111.03772 36808 ft 535 kts 109°
2026-04-24 22:22 32.67029 -110.95207 36798 ft 535 kts 109°
2026-04-24 22:23 32.65071 -110.86695 36795 ft 536 kts 109°
2026-04-24 22:23 32.63101 -110.78160 36796 ft 537 kts 109°
2026-04-24 22:24 32.61127 -110.69635 36793 ft 537 kts 110°
2026-04-24 22:24 32.59145 -110.61097 36795 ft 538 kts 110°
2026-04-24 22:25 32.57139 -110.52508 36793 ft 540 kts 110°
2026-04-24 22:25 32.55135 -110.43943 36793 ft 540 kts 110°
2026-04-24 22:26 32.53122 -110.35371 36799 ft 540 kts 110°
2026-04-24 22:26 32.51095 -110.26768 36805 ft 542 kts 110°
2026-04-24 22:27 32.49067 -110.18187 36800 ft 541 kts 110°
2026-04-24 22:27 32.47030 -110.09600 36793 ft 541 kts 110°
2026-04-24 22:28 32.44998 -110.01061 36795 ft 542 kts 110°
2026-04-24 22:28 32.42941 -109.92443 36788 ft 542 kts 110°
2026-04-24 22:29 32.39867 -109.79623 36780 ft 542 kts 111°
2026-04-24 22:29 32.37799 -109.71031 36771 ft 542 kts 111°
2026-04-24 22:30 32.35730 -109.62463 36770 ft 543 kts 111°
2026-04-24 22:30 32.33656 -109.53900 36763 ft 543 kts 111°
2026-04-24 22:31 32.31561 -109.45282 36763 ft 543 kts 111°
2026-04-24 22:31 32.29476 -109.36731 36765 ft 543 kts 111°
2026-04-24 22:32 32.27380 -109.28144 36764 ft 544 kts 110°
2026-04-24 22:32 32.26719 -109.23757 36762 ft 549 kts 97°
2026-04-24 22:32 32.26389 -109.19251 36747 ft 549 kts 101°
2026-04-24 22:33 32.25427 -109.10290 36761 ft 550 kts 99°
2026-04-24 22:33 32.24549 -109.01304 36806 ft 551 kts 99°
2026-04-24 22:34 32.23683 -108.92328 36858 ft 551 kts 99°
2026-04-24 22:34 32.22813 -108.83374 36890 ft 551 kts 99°
2026-04-24 22:35 32.21933 -108.74384 36914 ft 551 kts 99°
2026-04-24 22:35 32.21043 -108.65358 36904 ft 551 kts 99°
2026-04-24 22:36 32.20155 -108.56419 36882 ft 551 kts 99°
2026-04-24 22:36 32.19251 -108.47388 36841 ft 551 kts 99°
2026-04-24 22:37 32.18352 -108.38462 36811 ft 551 kts 99°
2026-04-24 22:37 32.17438 -108.29456 36773 ft 552 kts 99°
2026-04-24 22:38 32.16516 -108.20443 36768 ft 552 kts 99°
2026-04-24 22:38 32.15591 -108.11455 36775 ft 552 kts 100°
2026-04-24 22:39 32.14660 -108.02481 36811 ft 552 kts 100°
2026-04-24 22:39 32.13721 -107.93491 36853 ft 552 kts 100°
2026-04-24 22:40 32.12778 -107.84522 36880 ft 553 kts 100°
2026-04-24 22:40 32.11826 -107.75531 36896 ft 553 kts 100°
2026-04-24 22:41 32.10864 -107.66508 36890 ft 553 kts 100°
2026-04-24 22:41 32.09901 -107.57528 36842 ft 552 kts 100°
2026-04-24 22:42 32.08924 -107.48492 36813 ft 554 kts 100°
2026-04-24 22:42 32.07949 -107.39528 36759 ft 554 kts 100°
2026-04-24 22:43 32.06964 -107.30537 36741 ft 554 kts 100°
2026-04-24 22:43 32.05968 -107.21504 36755 ft 555 kts 100°
2026-04-24 22:44 32.04968 -107.12496 36781 ft 555 kts 100°
2026-04-24 22:44 32.03961 -107.03483 36804 ft 556 kts 100°
2026-04-24 22:45 32.02944 -106.94441 36813 ft 556 kts 100°
2026-04-24 22:45 32.01922 -106.85409 36851 ft 556 kts 100°
2026-04-24 22:46 32.00893 -106.76379 36886 ft 557 kts 100°
2026-04-24 22:46 31.99858 -106.67351 36891 ft 557 kts 100°
2026-04-24 22:47 31.98812 -106.58287 36880 ft 557 kts 100°
2026-04-24 22:47 31.97762 -106.49229 36860 ft 558 kts 100°
2026-04-24 22:48 31.96709 -106.40198 36927 ft 559 kts 100°
2026-04-24 22:48 31.95645 -106.31138 36900 ft 558 kts 100°
2026-04-24 22:49 31.94901 -106.22041 36871 ft 559 kts 96°
2026-04-24 22:49 31.94199 -106.12931 36834 ft 560 kts 97°
2026-04-24 22:50 31.93490 -106.03803 36791 ft 560 kts 97°
2026-04-24 22:50 31.92777 -105.94695 36754 ft 560 kts 97°
2026-04-24 22:51 31.92056 -105.85574 36749 ft 559 kts 97°
2026-04-24 22:51 31.91329 -105.76463 36751 ft 560 kts 97°
2026-04-24 22:52 31.90596 -105.67357 36745 ft 560 kts 97°
2026-04-24 22:52 31.89855 -105.58238 36737 ft 559 kts 97°
2026-04-24 22:53 31.89107 -105.49104 36728 ft 559 kts 97°
2026-04-24 22:53 31.88356 -105.40017 36727 ft 559 kts 97°
2026-04-24 22:54 31.87593 -105.30881 36724 ft 560 kts 97°
2026-04-24 22:54 31.86832 -105.21827 36725 ft 560 kts 97°
2026-04-24 22:55 31.86055 -105.12672 36727 ft 559 kts 97°
2026-04-24 22:55 31.85279 -105.03611 36729 ft 559 kts 97°
2026-04-24 22:56 31.84494 -104.94513 36736 ft 559 kts 97°
2026-04-24 22:56 31.83838 -104.86954 36728 ft 557 kts 97°
2026-04-24 22:57 31.83043 -104.77891 36731 ft 558 kts 97°
2026-04-24 22:57 31.82237 -104.68769 36741 ft 557 kts 97°
2026-04-24 22:58 31.81431 -104.59734 36731 ft 557 kts 97°
2026-04-24 22:58 31.80620 -104.50694 36739 ft 557 kts 97°
2026-04-24 22:59 31.79797 -104.41611 36735 ft 557 kts 97°
2026-04-24 23:00 31.78553 -104.28010 36716 ft 558 kts 97°
2026-04-24 23:00 31.77717 -104.18959 36718 ft 558 kts 97°
2026-04-24 23:01 31.76872 -104.09879 36719 ft 559 kts 97°
2026-04-24 23:01 31.76019 -104.00781 36703 ft 559 kts 97°
2026-04-24 23:02 31.75162 -103.91726 36700 ft 559 kts 97°
2026-04-24 23:02 31.74295 -103.82618 36695 ft 559 kts 97°
2026-04-24 23:03 31.73427 -103.73571 36681 ft 559 kts 97°
2026-04-24 23:03 31.72545 -103.64456 36684 ft 559 kts 97°
2026-04-24 23:04 31.71663 -103.55409 36700 ft 559 kts 97°
2026-04-24 23:04 31.70775 -103.46356 36700 ft 558 kts 97°
2026-04-24 23:05 31.69878 -103.37291 36700 ft 558 kts 97°
2026-04-24 23:05 31.68980 -103.28265 36689 ft 558 kts 97°
2026-04-24 23:06 31.68073 -103.19231 36689 ft 557 kts 97°
2026-04-24 23:06 31.67162 -103.10216 36690 ft 557 kts 97°
2026-04-24 23:07 31.66238 -103.01137 36690 ft 556 kts 97°
2026-04-24 23:07 31.65316 -102.92142 36697 ft 556 kts 97°
2026-04-24 23:08 31.64388 -102.83153 36699 ft 556 kts 97°
2026-04-24 23:08 31.63456 -102.74185 36696 ft 555 kts 97°
2026-04-24 23:09 31.62511 -102.65162 36701 ft 555 kts 97°
2026-04-24 23:09 31.61568 -102.56214 36701 ft 554 kts 97°
2026-04-24 23:10 31.60615 -102.47237 36706 ft 554 kts 97°
2026-04-24 23:10 31.59657 -102.38266 36708 ft 554 kts 97°
2026-04-24 23:11 31.58693 -102.29305 36711 ft 553 kts 97°
2026-04-24 23:11 31.57722 -102.20339 36716 ft 553 kts 97°
2026-04-24 23:12 31.56751 -102.11432 36711 ft 553 kts 97°
2026-04-24 23:12 31.55770 -102.02491 36709 ft 553 kts 97°
2026-04-24 23:13 31.54783 -101.93546 36714 ft 552 kts 97°
2026-04-24 23:13 31.53790 -101.84617 36712 ft 552 kts 97°
2026-04-24 23:14 31.52795 -101.75722 36713 ft 551 kts 97°
2026-04-24 23:14 31.51795 -101.66838 36718 ft 551 kts 97°
2026-04-24 23:15 31.50788 -101.57951 36718 ft 550 kts 97°
2026-04-24 23:15 31.49771 -101.49036 36716 ft 550 kts 97°
2026-04-24 23:16 31.48754 -101.40170 36724 ft 549 kts 97°
2026-04-24 23:16 31.47727 -101.31270 36723 ft 549 kts 97°
2026-04-24 23:17 31.46712 -101.22531 36761 ft 538 kts 98°
2026-04-24 23:17 31.45699 -101.13865 36726 ft 537 kts 98°
2026-04-24 23:18 31.44678 -101.05179 36720 ft 537 kts 98°
2026-04-24 23:18 31.43654 -100.96510 36729 ft 537 kts 98°
2026-04-24 23:19 31.42628 -100.87871 36733 ft 536 kts 98°
2026-04-24 23:19 31.41597 -100.79234 36751 ft 537 kts 98°
2026-04-24 23:20 31.40559 -100.70589 36775 ft 537 kts 98°
2026-04-24 23:20 31.39516 -100.61950 36796 ft 537 kts 98°
2026-04-24 23:21 31.38467 -100.53315 36809 ft 537 kts 98°
2026-04-24 23:21 31.37294 -100.44673 36793 ft 536 kts 107°
2026-04-24 23:22 31.35223 -100.36306 36800 ft 536 kts 108°
2026-04-24 23:22 31.33138 -100.27914 36774 ft 537 kts 108°
2026-04-24 23:23 31.31050 -100.19531 36754 ft 538 kts 108°
2026-04-24 23:23 31.28941 -100.11096 36720 ft 538 kts 108°
2026-04-24 23:24 31.26843 -100.02725 36711 ft 538 kts 108°
2026-04-24 23:24 31.24735 -99.94342 36710 ft 539 kts 108°
2026-04-24 23:25 31.22616 -99.85942 36704 ft 539 kts 108°
2026-04-24 23:25 31.20489 -99.77531 36700 ft 539 kts 108°
2026-04-24 23:26 31.18357 -99.69133 36716 ft 540 kts 108°
2026-04-24 23:26 31.16221 -99.60739 36743 ft 540 kts 108°
2026-04-24 23:27 31.14083 -99.52362 36773 ft 540 kts 108°
2026-04-24 23:27 31.11935 -99.43971 36797 ft 540 kts 109°
2026-04-24 23:28 31.09781 -99.35582 36800 ft 540 kts 109°
2026-04-24 23:28 31.07622 -99.27202 36794 ft 540 kts 109°
2026-04-24 23:29 31.05448 -99.18785 36774 ft 540 kts 109°
2026-04-24 23:29 31.03284 -99.10433 36753 ft 540 kts 109°
2026-04-24 23:30 31.01110 -99.02067 36732 ft 540 kts 109°
2026-04-24 23:30 30.98923 -98.93670 36722 ft 540 kts 109°
2026-04-24 23:31 30.96754 -98.85301 36742 ft 540 kts 105°
2026-04-24 23:31 30.95761 -98.76658 36742 ft 541 kts 96°
2026-04-24 23:32 30.94912 -98.67897 36768 ft 541 kts 96°
2026-04-24 23:32 30.94083 -98.59203 36768 ft 541 kts 96°
2026-04-24 23:33 30.93250 -98.50520 36761 ft 541 kts 96°
2026-04-24 23:33 30.92406 -98.41784 36756 ft 541 kts 96°
2026-04-24 23:34 30.91561 -98.33102 36769 ft 541 kts 96°
2026-04-24 23:34 30.90707 -98.24395 36775 ft 541 kts 96°
2026-04-24 23:35 30.89849 -98.15698 36775 ft 541 kts 96°
2026-04-24 23:35 30.88986 -98.07015 36764 ft 541 kts 96°
2026-04-24 23:36 30.88118 -97.98331 36744 ft 540 kts 96°
2026-04-24 23:36 30.87241 -97.89636 36745 ft 540 kts 96°
2026-04-24 23:37 30.86362 -97.80987 36747 ft 540 kts 96°
2026-04-24 23:37 30.85025 -97.67927 36764 ft 540 kts 96°
2026-04-24 23:38 30.84133 -97.59279 36763 ft 540 kts 96°
2026-04-24 23:38 30.83230 -97.50591 36761 ft 540 kts 96°
2026-04-24 23:39 30.82478 -97.43399 36753 ft 539 kts 96°
2026-04-24 23:39 30.81567 -97.34740 36747 ft 539 kts 96°
2026-04-24 23:40 30.80646 -97.26040 36741 ft 539 kts 96°
2026-04-24 23:40 30.79725 -97.17390 36744 ft 539 kts 96°
2026-04-24 23:41 30.78802 -97.08781 36742 ft 539 kts 96°
2026-04-24 23:41 30.77867 -97.00114 36746 ft 539 kts 96°
2026-04-24 23:42 30.76930 -96.91485 36358 ft 541 kts 96°
2026-04-24 23:42 30.76456 -96.87129 35611 ft 543 kts 96°
2026-04-24 23:42 30.75977 -96.82748 34864 ft 545 kts 96°
2026-04-24 23:43 30.75502 -96.78421 34164 ft 545 kts 96°
2026-04-24 23:43 30.75018 -96.74021 33483 ft 544 kts 96°
2026-04-24 23:43 30.74541 -96.69703 32699 ft 544 kts 96°
2026-04-24 23:43 30.74057 -96.65329 31878 ft 542 kts 96°
2026-04-24 23:44 30.73572 -96.60970 31174 ft 538 kts 96°
2026-04-24 23:44 30.73099 -96.56715 30478 ft 532 kts 96°
2026-04-24 23:44 30.72623 -96.52462 29801 ft 527 kts 96°
2026-04-24 23:44 30.72151 -96.48253 29101 ft 519 kts 96°
2026-04-24 23:45 30.71686 -96.44122 28573 ft 509 kts 96°
2026-04-24 23:45 30.71234 -96.40116 28014 ft 500 kts 96°
2026-04-24 23:45 30.70771 -96.36114 27421 ft 492 kts 98°
2026-04-24 23:45 30.69826 -96.32318 26803 ft 485 kts 116°
2026-04-24 23:46 30.68334 -96.28890 26364 ft 474 kts 118°
2026-04-24 23:46 30.66844 -96.25527 25826 ft 472 kts 119°
2026-04-24 23:46 30.65316 -96.22140 25243 ft 471 kts 119°
2026-04-24 23:46 30.63777 -96.18764 24685 ft 469 kts 119°
2026-04-24 23:47 30.62262 -96.15458 24140 ft 465 kts 119°
2026-04-24 23:47 30.60740 -96.12145 23530 ft 460 kts 119°
2026-04-24 23:47 30.59249 -96.08902 22767 ft 458 kts 119°
2026-04-24 23:47 30.57748 -96.05642 22079 ft 453 kts 119°
2026-04-24 23:48 30.56264 -96.02418 21428 ft 447 kts 119°
2026-04-24 23:48 30.54808 -95.99261 20793 ft 439 kts 119°
2026-04-24 23:48 30.53390 -95.96186 20168 ft 433 kts 120°
2026-04-24 23:48 30.51968 -95.93106 19547 ft 426 kts 120°
2026-04-24 23:49 30.50595 -95.90133 18953 ft 420 kts 120°
2026-04-24 23:49 30.49035 -95.87286 18384 ft 409 kts 134°
2026-04-24 23:49 30.47029 -95.85105 18012 ft 395 kts 142°
2026-04-24 23:49 30.44970 -95.83015 17520 ft 387 kts 142°
2026-04-24 23:50 30.42949 -95.80989 17101 ft 377 kts 143°
2026-04-24 23:50 30.41011 -95.79066 16825 ft 364 kts 143°
2026-04-24 23:50 30.39101 -95.77179 16482 ft 354 kts 143°
2026-04-24 23:50 30.37260 -95.75366 16113 ft 348 kts 143°
2026-04-24 23:51 30.35432 -95.73577 15795 ft 342 kts 144°
2026-04-24 23:51 30.33582 -95.71792 15347 ft 344 kts 144°
2026-04-24 23:51 30.31764 -95.70035 14958 ft 342 kts 143°
2026-04-24 23:51 30.29930 -95.68262 14554 ft 341 kts 143°
2026-04-24 23:52 30.28116 -95.66510 14143 ft 341 kts 143°
2026-04-24 23:52 30.26375 -95.64652 13847 ft 337 kts 140°
2026-04-24 23:52 30.24585 -95.62957 13582 ft 330 kts 145°
2026-04-24 23:52 30.22792 -95.61300 12930 ft 333 kts 144°
2026-04-24 23:53 30.22152 -95.60700 12703 ft 332 kts 144°
2026-04-24 23:53 30.20382 -95.59027 12259 ft 322 kts 144°
2026-04-24 23:53 30.18688 -95.57415 11898 ft 316 kts 143°
2026-04-24 23:53 30.16986 -95.55787 11506 ft 319 kts 143°
2026-04-24 23:54 30.15269 -95.54142 11099 ft 319 kts 143°
2026-04-24 23:54 30.13562 -95.52505 10691 ft 315 kts 143°
2026-04-24 23:54 30.11916 -95.50925 10309 ft 304 kts 144°
2026-04-24 23:54 30.10363 -95.49290 9930 ft 298 kts 131°
2026-04-24 23:55 30.09456 -95.47192 9568 ft 298 kts 105°
2026-04-24 23:55 30.09285 -95.44792 9246 ft 298 kts 91°
2026-04-24 23:55 30.09270 -95.42416 8919 ft 299 kts 91°
2026-04-24 23:55 30.09259 -95.40011 8592 ft 299 kts 91°
2026-04-24 23:56 30.09253 -95.37638 8266 ft 295 kts 91°
2026-04-24 23:56 30.09249 -95.35312 7958 ft 283 kts 90°
2026-04-24 23:56 30.09246 -95.33067 7678 ft 273 kts 91°
2026-04-24 23:56 30.09242 -95.30895 7393 ft 267 kts 90°
2026-04-24 23:57 30.09242 -95.28791 7161 ft 261 kts 89°
2026-04-24 23:57 30.09274 -95.26729 7030 ft 255 kts 89°
2026-04-24 23:57 30.09311 -95.24719 7015 ft 243 kts 89°
2026-04-24 23:57 30.09349 -95.22780 6947 ft 241 kts 89°
2026-04-24 23:58 30.09385 -95.20823 6977 ft 250 kts 89°
2026-04-24 23:58 30.09425 -95.18777 6678 ft 257 kts 89°
2026-04-24 23:58 30.09464 -95.16713 6377 ft 256 kts 89°
2026-04-24 23:58 30.09504 -95.14677 6080 ft 255 kts 89°
2026-04-24 23:59 30.09543 -95.12630 5769 ft 253 kts 89°
2026-04-24 23:59 30.09583 -95.10588 5460 ft 252 kts 89°
2026-04-24 23:59 30.09622 -95.08582 5151 ft 251 kts 90°
2026-04-24 23:59 30.09527 -95.06577 4832 ft 247 kts 108°
2026-04-25 00:00 30.08706 -95.04913 4548 ft 237 kts 140°
2026-04-25 00:00 30.07336 -95.04023 4268 ft 222 kts 171°
2026-04-25 00:00 30.05838 -95.03852 4064 ft 210 kts 181°
2026-04-25 00:00 30.04416 -95.03803 3863 ft 201 kts 181°
2026-04-25 00:01 30.03043 -95.03759 3638 ft 193 kts 182°
2026-04-25 00:01 30.01803 -95.04154 3366 ft 183 kts 217°
2026-04-25 00:01 30.01077 -95.05304 3137 ft 181 kts 247°
2026-04-25 00:01 30.00692 -95.06706 3017 ft 183 kts 251°
2026-04-25 00:02 30.00348 -95.08113 2985 ft 184 kts 252°
2026-04-25 00:02 29.99998 -95.09543 3004 ft 185 kts 251°
2026-04-25 00:02 29.99694 -95.10990 2985 ft 186 kts 256°
2026-04-25 00:02 29.99506 -95.12455 3010 ft 186 kts 261°
2026-04-25 00:03 29.99403 -95.13961 2976 ft 188 kts 264°
2026-04-25 00:03 29.99359 -95.15430 2984 ft 172 kts 265°
2026-04-25 00:03 29.99344 -95.16750 2816 ft 163 kts 265°
2026-04-25 00:03 29.99336 -95.18070 2566 ft 165 kts 265°
2026-04-25 00:04 29.99333 -95.19382 2330 ft 164 kts 265°
2026-04-25 00:04 29.99331 -95.20707 2111 ft 165 kts 265°
2026-04-25 00:04 29.99329 -95.22024 1908 ft 166 kts 265°
2026-04-25 00:04 29.99332 -95.23395 1695 ft 172 kts 266°
2026-04-25 00:05 29.99336 -95.24800 1440 ft 175 kts 264°
2026-04-25 00:05 29.99340 -95.26195 1175 ft 174 kts 266°
2026-04-25 00:05 29.99367 -95.27578 954 ft 168 kts 265°
2026-04-25 00:05 29.99360 -95.28882 729 ft 159 kts 263°
2026-04-25 00:06 29.99348 -95.30158 524 ft 158 kts 265°
2026-04-25 00:06 29.99348 -95.31431 325 ft 163 kts 267°
2026-04-25 00:06 29.99345 -95.32722 119 ft 156 kts 269°
2026-04-25 00:06 29.99344 -95.33780 108 ft 96 kts 270°
2026-04-25 00:07 29.99342 -95.34384 107 ft 71 kts 270°
2026-04-25 00:07 29.99272 -95.34806 110 ft 17 kts 240°
2026-04-25 00:07 29.99250 -95.34851 110 ft 0 kts 240°
2026-04-25 00:08 29.99245 -95.34860 108 ft 3 kts 240°
2026-04-25 00:08 29.99230 -95.34889 109 ft 6 kts 240°
2026-04-25 00:08 29.99205 -95.34940 110 ft 9 kts 239°
2026-04-25 00:08 29.99172 -95.34997 108 ft 8 kts 228°
2026-04-25 00:09 29.99138 -95.35025 108 ft 4 kts 202°
2026-04-25 00:09 29.99132 -95.35027 109 ft 3 kts 192°
2026-04-25 00:09 29.99091 -95.34985 109 ft 14 kts 108°
2026-04-25 00:09 29.99084 -95.34860 109 ft 17 kts 91°
2026-04-25 00:10 29.99057 -95.34811 109 ft 7 kts 175°
2026-04-25 00:10 29.99006 -95.34793 109 ft 9 kts 130°
2026-04-25 00:10 29.98964 -95.34731 110 ft 11 kts 162°
2026-04-25 00:10 29.98897 -95.34680 110 ft 11 kts 127°
2026-04-25 00:11 29.98857 -95.34667 109 ft 5 kts 193°
2026-04-25 00:11 29.98842 -95.34671 110 ft 1 kts 191°
2026-04-25 00:11 29.98841 -95.34671 110 ft 0 kts 191°